Regional Weather Roundup
Issued by NWS

Home | Current Version | Previous Version | Graphics & Text | Print | Product List | Glossary On
Versions: 1 2 3 4 5 6 7 8 9 10 11 12 13 14 15 16 17 18 19 20 21 22 23 24 25 26 27 28 29 30 31 32 33 34 35 36 37 38 39 40 41 42 43 44 45 46 47 48 49 50
000
ASUS43 KMKX 281010
RWRWI

WISCONSIN REGIONAL WEATHER ROUNDUP
NATIONAL WEATHER SERVICE MILWAUKEE/SULLIVAN WI
400 AM CST WED JAN 28 2015

NOTE: "FAIR" INDICATES FEW OR NO CLOUDS BELOW 12,000 FEET WITH NO
SIGNIFICANT WEATHER AND/OR OBSTRUCTIONS TO VISIBILITY.

WIZ001-002-006>008-014>016-023>028-281100-
NORTHWEST WISCONSIN

CITY           SKY/WX    TMP DP  RH WIND       PRES   REMARKS
SUPERIOR ARPT  CLOUDY    26  21  83 SW5       30.08F WCI  20
ASHLAND        CLOUDY    26  20  77 CALM      30.11S
HAYWARD        CLOUDY    24  20  84 S8        30.09F WCI  15
SIREN          CLOUDY    25  22  85 S9        30.07F WCI  16
CUMBERLAND     CLOUDY    23  21  93 SE9       30.07F WCI  13
RICE LAKE      CLOUDY    25  22  86 SE10      30.10F WCI  15
CHETEK         CLOUDY    25  22  87 SE8       30.10F WCI  16
LADYSMITH      CLOUDY    25  22  88 S7        30.13F WCI  17
EAU CLAIRE     CLOUDY    25  20  81 SE9       30.11F WCI  15
MENOMONIE      CLOUDY    27  23  85 SE9       30.12F WCI  17
NEW RICHMOND   CLOUDY    27  23  86 SE9       30.08F WCI  18
OSCEOLA        CLOUDY    28  25  88 SE9       30.10F WCI  19
$$

WIZ003>005-009-010-017-018-281100-
NORTH CENTRAL WISCONSIN

CITY           SKY/WX    TMP DP  RH WIND       PRES   REMARKS
MANITOWISH WTR CLOUDY    22  21  96 S6        30.09F WCI  14
ARBOR VITAE    CLOUDY    23  21  93 S5        30.10S FOG     WCI  17
WOODRUFF       CLOUDY    23  21  93 S5        30.10S FOG     WCI  17
RHINELANDER    CLOUDY    22  20  92 S8        30.12S FOG     WCI  12
EAGLE RIVER    CLOUDY    22  19  89 S5        30.11S FOG     WCI  16
LAND O LAKES   CLOUDY    23  21  93 S5        30.11F WCI  16
PHILLIPS       CLOUDY    23  21  92 S12       30.10S WCI  12
TOMAHAWK       CLOUDY    22  21  94 CALM      30.12F FOG
MEDFORD        CLOUDY    23  21  93 S12       30.11F FOG     WCI  12
MERRILL        CLOUDY    23  21  91 S5        30.14F WCI  17
$$

WIZ029-030-035-036-043>047-281100-
CENTRAL WISCONSIN

CITY           SKY/WX    TMP DP  RH WIND       PRES   REMARKS
WAUSAU         CLOUDY    23  19  85 SE8       30.14F WCI  14
MOSINEE        CLOUDY    23  21  93 SE6       30.16F WCI  16
MARSHFIELD     CLOUDY    25  22  88 S12       30.14F FOG     WCI  14
STEVENS POINT  CLOUDY    23  18  82 S5        30.18S WCI  17
WAUPACA        CLOUDY    26  19  77 SE3       30.21S
WAUTOMA        CLOUDY    25  21  84 S5        30.21F WCI  19
WISC RAPIDS    CLOUDY    24  20  84 SE6       30.18F WCI  17
CAMP DOUGLAS   CLOUDY    27  27 100 S7        30.17S WCI  19
$$

WIZ011>013-019>022-031-037>040-048>050-281100-
NORTHEAST WISCONSIN

CITY           SKY/WX    TMP DP  RH WIND       PRES   REMARKS
ANTIGO         CLOUDY    21  18  90 S6        30.15S WCI  13
SHAWANO        CLOUDY    25  18  75 S3        30.21F
OCONTO         CLOUDY    15  14  95 CALM      30.23F
STURGEON BAY   MOCLDY    18  14  86 S5        30.25F WCI  11
GREEN BAY      MOCLDY    17  15  92 SE3       30.23F
MANITOWOC      PTCLDY    16  12  84 CALM      30.25F
APPLETON       MOCLDY    23  18  80 S8        30.22S WCI  14
CLINTONVILLE   CLOUDY    23  18  80 S6        30.20F WCI  16
OSHKOSH        MOCLDY    22  17  81 S6        30.22F WCI  14
$$

WIZ032>034-041-042-053>061-281100-
SOUTHWEST WISCONSIN

CITY           SKY/WX    TMP DP  RH WIND       PRES   REMARKS
LA CROSSE      CLOUDY    28  22  78 S10       30.16F WCI  19
SPARTA         CLOUDY    26  23  86 S9        30.17F WCI  17
VIROQUA        CLOUDY    24  24 100 S9        30.13F WCI  15
BOSCOBEL       CLOUDY    28  22  78 VRB5      30.19F WCI  23
PRAIRIE DU CHI CLOUDY    27  22  82 SE8       30.18F FOG     WCI  18
PLATTEVILLE    CLOUDY    27  24  89 SE8       30.18S WCI  18
$$

WIZ056-057-062-063-064-067-068-281100-
SOUTH CENTRAL WISCONSIN

CITY           SKY/WX    TMP DP  RH WIND       PRES   REMARKS
REEDSBURG      CLOUDY    26  23  86 S6        30.19S WCI  20
BARABOO/DELLS  CLOUDY    26  22  85 S7        30.18F WCI  18
LONE ROCK      CLOUDY    25  20  81 SE3       30.21S
MINERAL POINT  CLOUDY    27  25  93 SE7       30.17S FOG     WCI  19
MADISON        MOCLDY    23  18  81 S7        30.21F WCI  15
MIDDLETON      MOCLDY    24  19  81 S6        30.21S WCI  17
WATERTOWN      CLOUDY    23  19  85 E5        30.23S WCI  17
MONROE         MOCLDY    21  19  93 S3        30.20S
JANESVILLE     PTCLDY    23  19  86 SE5       30.22F WCI  17
$$

WIZ051-052-058>065-066-070>072-281100-
SOUTHEAST WISCONSIN

CITY           SKY/WX    TMP DP  RH WIND       PRES   REMARKS
MILWAUKEE      MOCLDY    23  16  74 CALM      30.26F
WAUKESHA       PTCLDY    21  18  86 CALM      30.25S
MILWAUKEE/TIMM PTCLDY    25  18  74 E3        30.26S
RACINE         MOCLDY    21  16  81 CALM      30.27F
BURLINGTON     MOCLDY    19  17  91 CALM      30.25S
KENOSHA        PTCLDY    19  16  88 CALM      30.25F
FOND DU LAC    CLOUDY    22  16  78 S5        30.22F WCI  16
SHEBOYGAN      MOCLDY    19  15  84 SE3       30.24F
WEST BEND      PTCLDY    19  18  93 CALM      30.23F
JUNEAU         CLOUDY    23  18  83 SE8       30.23F WCI  13
$$

LSZ147-162-281100-
LAKE SUPERIOR

STATION/POSITION TIME  TEMP    WIND        PRES    WAVE
                       AIR SEA DIR/SP/G            HT/PER
                 (UTC) (F)     (DEG/KT/KT) (MB)    (FT/S)
DEVILS ISLAND    1000   28     160/  6/  8 1020.7F
PORT WING        0900   28     180/  4/  6 1019.6F
SAXON HARBOR     0900   28     190/  2/  5 1020.0F
$$

LMZ867-665-643>646-281100-
LAKE MICHIGAN

STATION/POSITION TIME  TEMP    WIND        PRES    WAVE
                       AIR SEA DIR/SP/G            HT/PER
                 (UTC) (F)     (DEG/KT/KT) (MB)    (FT/S)
NORTHPORT PIER   0904   17     200/  1/  5 1024.0F
SISTER BAY       0913   19        CALM       N/A
KEWAUNEE LAKESHO 0900   22     280/  1/  3 1023.6F
SHEBOYGAN LAKESH 1000   27     150/  5/  6 1025.4F
PORT WASHINGTON  0940   24        CALM     1025.4F
MILWAUKEE LAKESH 0900   27     230/  4/  5   N/A
KENOSHA   LAKESH 1000   24        CALM     1024.7F
$$

TC  - TEMPERATURE IN CELSIUS
VSB - VISIBILITY IN STATUTE MILES
WCI - WIND CHILL INDEX
HX  - HEAT INDEX



USA.gov is the U.S. government's official web portal to all federal, state and local government web resources and services.